Погода в Красном Маяке

Россия / Владимирская область     56°02′56″N   41°21′57″E
темп.,
°C
ветер,
м/с
пор.,
м/с
влажн.,
%
обл.,
%
осадки,
мм/ч
давл.,
гПа
погр.,
м
7 августа, вс
вс700:00+19ю37690 0.0 1019134
03:00+19ююв246617 0.0 101974
06:00+19ююв26679 0.0 1019142
09:00+26ююз464678 0.0 1019583
12:00+26юз255143 0.1 1018796
15:00+29ю563640 0.1 10171404
18:00+27ю36445 0.0 1016380
21:00+21с377019 0.0 1017175
8 августа, пн
пн800:00+17с26963 0.4 1019175
03:00+16ссв27988 0.4 1019154
06:00+17ссз2594100 0.1 1021172
09:00+21ссв3477100 0.1 1021461
12:00+24ссв3360100 0.0 1021933
15:00+27ссв224989 0.0 10201411
18:00+25с345830 0.0 1020488
21:00+17св389214 2.0 1021157
9 августа, вт
вт900:00+16всв2795100 0.0 1021136
03:00+16с2498100 1.3 1021106
06:00+16св269677 1.4 1021210
09:00+17всв3794100 1.8 1019267
12:00+20св217999 0.0 1019225
15:00+22ссз2371100 0.1 1019394
18:00+18ссз2593100 1.7 1019109
21:00+17в2498100 5.1 1019135
10 августа, ср
ср1000:00+16ссз2399100 0.7 101989
03:00+15сз1199100 0.7 101925
06:00+16ссз139881 0.0 1019127
09:00+18ссз2388100 0.0 1019469
12:00+18зюз2383100 0.8 1019548
15:00+20з347389 1.9 1018919
18:00+19сз268010 1.9 1018380
21:00+14зсз39940 1.9 1019228
11 августа, чт
чт1100:00+12зсз410960 0.0 1019310
03:00+12сз499985 0.0 1020337
06:00+13сз3794100 0.1 1021628
09:00+17с487410 0.1 1022862
12:00+22с464727 0.0 10221891
15:00+23ссз353874 0.0 10222361
18:00+22с25489 0.0 1022273
21:00+15ссз227097 0.0 102311